,,Stat5,,Stat1,,Stat2,,Stat3,,Stat4,,Wind1,,Wind1,
time,status,PA1M_AVG,status,PR1M_SUM,status,RH1M_AVG,status,SR1M_AVG,status,TA1M_AVG,status,W1dAve1m,status,W1sAve1m,
2000-11-17, 00:00:00,VALID,915.456,VALID,0,VALID,99.5145,VALID,-0.101885,VALID,19.9028,VALID,76,VALID,0,
2000-11-17, 00:01:00,VALID,915.456,VALID,0,VALID,99.5234,VALID,-0.101885,VALID,19.906,VALID,76,VALID,0,
2000-11-17, 00:02:00,VALID,915.443,VALID,0,VALID,99.531,VALID,-0.0509425,VALID,19.9097,VALID,76,VALID,0,
2000-11-17, 00:03:00,VALID,915.419,VALID,0,VALID,99.5285,VALID,-0.0679233,VALID,19.8998,VALID,76,VALID,0,
2000-11-17, 00:04:00,VALID,915.419,VALID,0,VALID,99.5476,VALID,-0.0679233,VALID,19.903,VALID,76,VALID,0,
2000-11-17, 00:05:00,VALID,915.408,VALID,0,VALID,99.5476,VALID,-0.0339617,VALID,19.913,VALID,76,VALID,0,
2000-11-17, 00:06:00,VALID,915.417,VALID,0,VALID,99.5336,VALID,-0.0339617,VALID,19.9062,VALID,77,VALID,0,
2000-11-17, 00:07:00,VALID,915.398,VALID,0,VALID,99.5437,VALID,-0.0679233,VALID,19.8998,VALID,83,VALID,0,
2000-11-17, 00:08:00,VALID,915.381,VALID,0,VALID,99.5437,VALID,-0.0509425,VALID,19.9065,VALID,98,VALID,0,
2000-11-17, 00:09:00,VALID,915.372,VALID,0,VALID,99.5527,VALID,-0.0849042,VALID,19.903,VALID,99,VALID,0,
2000-11-17, 00:10:00,VALID,915.358,VALID,0,VALID,99.5412,VALID,-0.101885,VALID,19.8933,VALID,110,VALID,0,
2000-11-17, 00:11:00,VALID,915.37,VALID,0,VALID,99.5374,VALID,-0.101885,VALID,19.9137,VALID,115,VALID,0,
2000-11-17, 00:12:00,VALID,915.346,VALID,0,VALID,99.5412,VALID,-0.0679233,VALID,19.8869,VALID,116,VALID,0,
2000-11-17, 00:13:00,VALID,915.351,VALID,0,VALID,99.5399,VALID,-0.0509425,VALID,19.8836,VALID,116,VALID,0,
2000-11-17, 00:14:00,VALID,915.349,VALID,0,VALID,99.5399,VALID,-0.101885,VALID,19.8901,VALID,116,VALID,0,
2000-11-17, 00:15:00,VALID,915.329,VALID,0,VALID,99.5323,VALID,-0.0849042,VALID,19.8836,VALID,116,VALID,0,
2000-11-17, 00:16:00,VALID,915.328,VALID,0,VALID,99.5183,VALID,-0.0679233,VALID,19.8645,VALID,116,VALID,0,
2000-11-17, 00:17:00,VALID,915.329,VALID,0,VALID,99.5298,VALID,-0.101885,VALID,19.8583,VALID,116,VALID,0,
2000-11-17, 00:18:00,VALID,915.321,VALID,0,VALID,99.5374,VALID,-0.0849042,VALID,19.8707,VALID,116,VALID,0,
2000-11-17, 00:19:00,VALID,915.312,VALID,0,VALID,99.5437,VALID,-0.101885,VALID,19.8747,VALID,116,VALID,0,
2000-11-17, 00:20:00,VALID,915.308,VALID,0,VALID,99.5234,VALID,-0.0679233,VALID,19.868,VALID,116,VALID,0,
2000-11-17, 00:21:00,VALID,915.295,VALID,0,VALID,99.5183,VALID,-0.118866,VALID,19.8551,VALID,116,VALID,0,
2000-11-17, 00:22:00,VALID,915.285,VALID,0,VALID,99.5259,VALID,-0.101885,VALID,19.8585,VALID,116,VALID,0,
2000-11-17, 00:23:00,VALID,915.278,VALID,0,VALID,99.5348,VALID,-0.0679233,VALID,19.8486,VALID,116,VALID,0,
2000-11-17, 00:24:00,VALID,915.268,VALID,0,VALID,99.5374,VALID,-0.0679233,VALID,19.8454,VALID,116,VALID,0,
2000-11-17, 00:25:00,VALID,915.272,VALID,0,VALID,99.5412,VALID,-0.0849042,VALID,19.8518,VALID,116,VALID,0,
2000-11-17, 00:26:00,VALID,915.277,VALID,0,VALID,99.5247,VALID,-0.0849042,VALID,19.8419,VALID,116,VALID,0,
2000-11-17, 00:27:00,VALID,915.271,VALID,0,VALID,99.5323,VALID,-0.0849042,VALID,19.8389,VALID,116,VALID,0,
2000-11-17, 00:28:00,VALID,915.255,VALID,0,VALID,99.5463,VALID,-0.0169808,VALID,19.8523,VALID,142,VALID,0,
2000-11-17, 00:29:00,VALID,915.257,VALID,0,VALID,99.5552,VALID,-0.0849042,VALID,19.8618,VALID,177,VALID,0,
2000-11-17, 00:30:00,VALID,915.261,VALID,0,VALID,99.5476,VALID,-0.0679233,VALID,19.8615,VALID,177,VALID,0,
2000-11-17, 00:31:00,VALID,915.28,VALID,0,VALID,99.5361,VALID,-0.0679233,VALID,19.8618,VALID,177,VALID,0,
2000-11-17, 00:32:00,VALID,915.275,VALID,0,VALID,99.5018,VALID,-0.101885,VALID,19.8292,VALID,177,VALID,0,
2000-11-17, 00:33:00,VALID,915.284,VALID,0,VALID,99.4929,VALID,0.0339617,VALID,19.8021,VALID,177,VALID,0,
2000-11-17, 00:34:00,VALID,915.277,VALID,0,VALID,99.4942,VALID,0.0169808,VALID,19.7795,VALID,177,VALID,0,
2000-11-17, 00:35:00,VALID,915.26,VALID,0,VALID,99.5005,VALID,0.0339617,VALID,19.7725,VALID,177,VALID,0,
2000-11-17, 00:36:00,VALID,915.25,VALID,0,VALID,99.4954,VALID,0.0169808,VALID,19.7666,VALID,177,VALID,0,
2000-11-17, 00:37:00,VALID,915.237,VALID,0,VALID,99.5094,VALID,0.0339617,VALID,19.7636,VALID,177,VALID,0,
2000-11-17, 00:38:00,VALID,915.23,VALID,0,VALID,99.5196,VALID,0.0339617,VALID,19.7601,VALID,184,VALID,0.0128205,
2000-11-17, 00:39:00,VALID,915.22,VALID,0,VALID,99.5514,VALID,0.0509425,VALID,19.7696,VALID,192,VALID,0.121711,
2000-11-17, 00:40:00,VALID,915.198,VALID,0,VALID,99.5552,VALID,0.0339617,VALID,19.7725,VALID,192,VALID,0,
2000-11-17, 00:41:00,VALID,915.195,VALID,0,VALID,99.5679,VALID,0.0339617,VALID,19.8051,VALID,193,VALID,0.182422,
2000-11-17, 00:42:00,VALID,915.196,VALID,0,VALID,99.5654,VALID,0.0169808,VALID,19.8148,VALID,209,VALID,0.51222,
2000-11-17, 00:43:00,VALID,915.188,VALID,0,VALID,99.5654,VALID,0.0679233,VALID,19.8153,VALID,230,VALID,0.595806,
2000-11-17, 00:44:00,VALID,915.184,VALID,0,VALID,99.5654,VALID,0.0339617,VALID,19.8113,VALID,217,VALID,0.633203,
2000-11-17, 00:45:00,VALID,915.164,VALID,0,VALID,99.5437,VALID,0.0169808,VALID,19.8086,VALID,223,VALID,0.649609,
2000-11-17, 00:46:00,VALID,915.159,VALID,0,VALID,99.5603,VALID,0.0169808,VALID,19.815,VALID,213,VALID,0.647837,
2000-11-17, 00:47:00,VALID,915.149,VALID,0,VALID,99.545,VALID,0.0339617,VALID,19.8116,VALID,217,VALID,0.653372,
2000-11-17, 00:48:00,VALID,915.148,VALID,0,VALID,99.5539,VALID,0.0339617,VALID,19.8051,VALID,216,VALID,0.688086,
2000-11-17, 00:49:00,VALID,915.132,VALID,0,VALID,99.5539,VALID,0.0339617,VALID,19.8053,VALID,206,VALID,0.728125,
2000-11-17, 00:50:00,VALID,915.134,VALID,0,VALID,99.559,VALID,0.0339617,VALID,19.8016,VALID,226,VALID,0.610978,
2000-11-17, 00:51:00,VALID,915.122,VALID,0,VALID,99.5603,VALID,0.0339617,VALID,19.8019,VALID,225,VALID,0.907072,
2000-11-17, 00:52:00,VALID,915.125,VALID,0,VALID,99.5666,VALID,0.0169808,VALID,19.7989,VALID,222,VALID,0.599414,
2000-11-17, 00:53:00,VALID,915.112,VALID,0,VALID,99.5628,VALID,0.0169808,VALID,19.8056,VALID,205,VALID,0.652539,
2000-11-17, 00:54:00,VALID,915.118,VALID,0,VALID,99.5883,VALID,0,VALID,19.8116,VALID,225,VALID,0.920673,
2000-11-17, 00:55:00,VALID,915.11,VALID,0,VALID,99.5883,VALID,0,VALID,19.8252,VALID,218,VALID,0.706209,
2000-11-17, 00:56:00,VALID,915.11,VALID,0,VALID,99.5895,VALID,0.0509425,VALID,19.8116,VALID,225,VALID,0.638867,
2000-11-17, 00:57:00,VALID,915.104,VALID,0.2,VALID,99.5883,VALID,0.0509425,VALID,19.8312,VALID,206,VALID,0.586523,
2000-11-17, 00:58:00,VALID,915.113,VALID,0,VALID,99.5755,VALID,0.0339617,VALID,19.8314,VALID,235,VALID,0.765024,
2000-11-17, 00:59:00,VALID,915.114,VALID,0,VALID,99.5933,VALID,0.0339617,VALID,19.8212,VALID,232,VALID,0.835938,
2000-11-17, 01:00:00,VALID,915.115,VALID,0,VALID,99.5933,VALID,0.0679233,VALID,19.8183,VALID,229,VALID,0.577148,
2000-11-17, 01:01:00,VALID,915.103,VALID,0,VALID,99.601,VALID,0,VALID,19.8312,VALID,236,VALID,0.552539,
2000-11-17, 01:02:00,VALID,915.092,VALID,0,VALID,99.5984,VALID,0.0169808,VALID,19.8314,VALID,229,VALID,0.803486,
2000-11-17, 01:03:00,VALID,915.085,VALID,0,VALID,99.5895,VALID,0.0169808,VALID,19.8185,VALID,211,VALID,0.676398,
2000-11-17, 01:04:00,VALID,915.077,VALID,0,VALID,99.5794,VALID,0.0169808,VALID,19.8086,VALID,219,VALID,1.13516,
2000-11-17, 01:05:00,VALID,915.07,VALID,0,VALID,99.5972,VALID,0.0339617,VALID,19.8116,VALID,237,VALID,0.974023,
2000-11-17, 01:06:00,VALID,915.054,VALID,0,VALID,99.5946,VALID,0.0509425,VALID,19.8183,VALID,203,VALID,0.561298,
2000-11-17, 01:07:00,VALID,915.043,VALID,0,VALID,99.5997,VALID,0.0679233,VALID,19.8215,VALID,211,VALID,0.548109,
2000-11-17, 01:08:00,VALID,915.043,VALID,0,VALID,99.6086,VALID,0.0339617,VALID,19.828,VALID,202,VALID,0.674023,
2000-11-17, 01:09:00,VALID,915.028,VALID,0,VALID,99.6099,VALID,0.0509425,VALID,19.8344,VALID,241,VALID,0.454297,
2000-11-17, 01:10:00,VALID,915.02,VALID,0,VALID,99.6124,VALID,0.0509425,VALID,19.8376,VALID,225,VALID,0.430489,
2000-11-17, 01:11:00,VALID,915.017,VALID,0,VALID,99.6315,VALID,0.0509425,VALID,19.8503,VALID,237,VALID,0.445929,
2000-11-17, 01:12:00,VALID,914.998,VALID,0,VALID,99.6277,VALID,0.0509425,VALID,19.8536,VALID,233,VALID,0.14707,
2000-11-17, 01:13:00,VALID,914.981,VALID,0,VALID,99.6226,VALID,0.0339617,VALID,19.8603,VALID,219,VALID,0.135937,
2000-11-17, 01:14:00,VALID,914.976,VALID,0,VALID,99.6328,VALID,0.0339617,VALID,19.87,VALID,267,VALID,0,
2000-11-17, 01:15:00,VALID,914.969,VALID,0,VALID,99.6277,VALID,0.0339617,VALID,19.8667,VALID,245,VALID,0,
2000-11-17, 01:16:00,VALID,914.964,VALID,0,VALID,99.6188,VALID,0,VALID,19.87,VALID,239,VALID,0.298633,
2000-11-17, 01:17:00,VALID,914.955,VALID,0,VALID,99.615,VALID,0,VALID,19.8637,VALID,228,VALID,0.684375,
2000-11-17, 01:18:00,VALID,914.955,VALID,0,VALID,99.6099,VALID,0,VALID,19.8536,VALID,234,VALID,0.727764,
2000-11-17, 01:19:00,VALID,914.961,VALID,0,VALID,99.6099,VALID,0.0169808,VALID,19.8543,VALID,234,VALID,0.671875,
2000-11-17, 01:20:00,VALID,914.945,VALID,0,VALID,99.6022,VALID,0.0169808,VALID,19.8411,VALID,221,VALID,0.569141,
2000-11-17, 01:21:00,VALID,914.943,VALID,0,VALID,99.6061,VALID,0.0339617,VALID,19.8508,VALID,214,VALID,0.0480469,
2000-11-17, 01:22:00,VALID,914.944,VALID,0,VALID,99.6086,VALID,0,VALID,19.8409,VALID,184,VALID,0,
2000-11-17, 01:23:00,VALID,914.948,VALID,0,VALID,99.6124,VALID,0,VALID,19.8344,VALID,206,VALID,0,
2000-11-17, 01:24:00,VALID,914.934,VALID,0,VALID,99.6022,VALID,0.0169808,VALID,19.8312,VALID,222,VALID,0,
2000-11-17, 01:25:00,VALID,914.936,VALID,0,VALID,99.5984,VALID,0.0169808,VALID,19.8414,VALID,222,VALID,0,
2000-11-17, 01:26:00,VALID,914.935,VALID,0,VALID,99.6137,VALID,0.0339617,VALID,19.8344,VALID,222,VALID,0,
2000-11-17, 01:27:00,VALID,914.943,VALID,0,VALID,99.6035,VALID,0.0339617,VALID,19.8314,VALID,221,VALID,0,
2000-11-17, 01:28:00,VALID,914.942,VALID,0,VALID,99.615,VALID,0.0169808,VALID,19.8381,VALID,221,VALID,0,
2000-11-17, 01:29:00,VALID,914.948,VALID,0,VALID,99.6239,VALID,0.0169808,VALID,19.8573,VALID,221,VALID,0,
2000-11-17, 01:30:00,VALID,914.947,VALID,0,VALID,99.6264,VALID,0,VALID,19.8734,VALID,221,VALID,0,
2000-11-17, 01:31:00,VALID,914.941,VALID,0.2,VALID,99.62,VALID,0,VALID,19.8799,VALID,221,VALID,0,
2000-11-17, 01:32:00,VALID,914.93,VALID,0,VALID,99.6213,VALID,0,VALID,19.8764,VALID,221,VALID,0,
2000-11-17, 01:33:00,VALID,914.917,VALID,0,VALID,99.6264,VALID,-0.0679233,VALID,19.8844,VALID,221,VALID,0,
2000-11-17, 01:34:00,VALID,914.888,VALID,0,VALID,99.6226,VALID,-0.101885,VALID,19.9008,VALID,221,VALID,0,
2000-11-17, 01:35:00,VALID,914.894,VALID,0,VALID,99.6061,VALID,-0.101885,VALID,19.8908,VALID,220,VALID,0,
2000-11-17, 01:36:00,VALID,914.883,VALID,0,VALID,99.5997,VALID,-0.0679233,VALID,19.8841,VALID,220,VALID,0,
2000-11-17, 01:37:00,VALID,914.88,VALID,0,VALID,99.5984,VALID,-0.0849042,VALID,19.8682,VALID,220,VALID,0,
2000-11-17, 01:38:00,VALID,914.866,VALID,0,VALID,99.615,VALID,-0.0849042,VALID,19.8876,VALID,220,VALID,0,
2000-11-17, 01:39:00,VALID,914.878,VALID,0,VALID,99.5883,VALID,-0.101885,VALID,19.8747,VALID,220,VALID,0,
2000-11-17, 01:40:00,VALID,914.856,VALID,0,VALID,99.5921,VALID,-0.101885,VALID,19.8752,VALID,220,VALID,0,
2000-11-17, 01:41:00,VALID,914.86,VALID,0,VALID,99.5832,VALID,-0.118866,VALID,19.8856,VALID,220,VALID,0,
2000-11-17, 01:42:00,VALID,914.847,VALID,0,VALID,99.5679,VALID,-0.0679233,VALID,19.872,VALID,218,VALID,0,
2000-11-17, 01:43:00,VALID,914.845,VALID,0,VALID,99.5666,VALID,-0.0679233,VALID,19.8551,VALID,215,VALID,0,
2000-11-17, 01:44:00,VALID,914.849,VALID,0,VALID,99.5577,VALID,-0.0509425,VALID,19.8585,VALID,208,VALID,0,
2000-11-17, 01:45:00,VALID,914.837,VALID,0,VALID,99.5361,VALID,-0.101885,VALID,19.8456,VALID,195,VALID,0,
2000-11-17, 01:46:00,VALID,914.837,VALID,0,VALID,99.5412,VALID,-0.0849042,VALID,19.8461,VALID,185,VALID,0,
2000-11-17, 01:47:00,VALID,914.829,VALID,0,VALID,99.573,VALID,-0.101885,VALID,19.8717,VALID,151,VALID,0,
2000-11-17, 01:48:00,VALID,914.814,VALID,0,VALID,99.5692,VALID,-0.0169808,VALID,19.8637,VALID,129,VALID,0,
2000-11-17, 01:49:00,VALID,914.798,VALID,0,VALID,99.5628,VALID,-0.0169808,VALID,19.871,VALID,113,VALID,0,
2000-11-17, 01:50:00,VALID,914.791,VALID,0,VALID,99.5527,VALID,0.0169808,VALID,19.8578,VALID,97,VALID,0,
2000-11-17, 01:51:00,VALID,914.772,VALID,0,VALID,99.5336,VALID,0.0169808,VALID,19.8411,VALID,101,VALID,0,
2000-11-17, 01:52:00,VALID,914.762,VALID,0,VALID,99.5476,VALID,0.0169808,VALID,19.8414,VALID,107,VALID,0,
2000-11-17, 01:53:00,VALID,914.748,VALID,0,VALID,99.559,VALID,0.0169808,VALID,19.8476,VALID,107,VALID,0,
2000-11-17, 01:54:00,VALID,914.751,VALID,0,VALID,99.5654,VALID,-0.0169808,VALID,19.8546,VALID,120,VALID,0,
2000-11-17, 01:55:00,VALID,914.729,VALID,0,VALID,99.5616,VALID,0,VALID,19.8546,VALID,124,VALID,0,
2000-11-17, 01:56:00,VALID,914.724,VALID,0,VALID,99.5501,VALID,0,VALID,19.8384,VALID,127,VALID,0,
2000-11-17, 01:57:00,VALID,914.695,VALID,0,VALID,99.5361,VALID,0,VALID,19.825,VALID,130,VALID,0,
2000-11-17, 01:58:00,VALID,914.679,VALID,0,VALID,99.5196,VALID,0.0169808,VALID,19.8091,VALID,131,VALID,0,
2000-11-17, 01:59:00,VALID,914.66,VALID,0,VALID,99.517,VALID,0.0169808,VALID,19.812,VALID,131,VALID,0,
2000-11-17, 02:00:00,VALID,914.633,VALID,0,VALID,99.5043,VALID,0.0339617,VALID,19.8088,VALID,131,VALID,0,
2000-11-17, 02:01:00,VALID,914.631,VALID,0,VALID,99.5081,VALID,0,VALID,19.7959,VALID,131,VALID,0,
2000-11-17, 02:02:00,VALID,914.608,VALID,0,VALID,99.517,VALID,0.0169808,VALID,19.8024,VALID,131,VALID,0,
2000-11-17, 02:03:00,VALID,914.605,VALID,0,VALID,99.5158,VALID,-0.0339617,VALID,19.7937,VALID,131,VALID,0,
2000-11-17, 02:04:00,VALID,914.593,VALID,0,VALID,99.5196,VALID,-0.0509425,VALID,19.8203,VALID,131,VALID,0,
2000-11-17, 02:05:00,VALID,914.585,VALID,0,VALID,99.531,VALID,-0.0849042,VALID,19.83,VALID,131,VALID,0,
2000-11-17, 02:06:00,VALID,914.581,VALID,0,VALID,99.5336,VALID,-0.0679233,VALID,19.8292,VALID,131,VALID,0,
2000-11-17, 02:07:00,VALID,914.594,VALID,0,VALID,99.5234,VALID,-0.101885,VALID,19.83,VALID,131,VALID,0,
2000-11-17, 02:08:00,VALID,914.584,VALID,0,VALID,99.5259,VALID,-0.101885,VALID,19.8235,VALID,131,VALID,0,
2000-11-17, 02:09:00,VALID,914.582,VALID,0,VALID,99.5183,VALID,-0.0849042,VALID,19.8426,VALID,131,VALID,0,
2000-11-17, 02:10:00,VALID,914.583,VALID,0,VALID,99.5209,VALID,-0.0849042,VALID,19.8262,VALID,131,VALID,0,
2000-11-17, 02:11:00,VALID,914.568,VALID,0,VALID,99.5209,VALID,-0.101885,VALID,19.8431,VALID,131,VALID,0,
2000-11-17, 02:12:00,VALID,914.563,VALID,0,VALID,99.517,VALID,-0.0849042,VALID,19.823,VALID,131,VALID,0,
2000-11-17, 02:13:00,VALID,914.558,VALID,0,VALID,99.512,VALID,-0.0849042,VALID,19.8178,VALID,131,VALID,0,
2000-11-17, 02:14:00,VALID,914.552,VALID,0,VALID,99.5005,VALID,-0.101885,VALID,19.7971,VALID,131,VALID,0,
2000-11-17, 02:15:00,VALID,914.531,VALID,0,VALID,99.4992,VALID,-0.101885,VALID,19.7842,VALID,131,VALID,0,
2000-11-17, 02:16:00,VALID,914.525,VALID,0,VALID,99.4967,VALID,-0.101885,VALID,19.7753,VALID,131,VALID,0,
2000-11-17, 02:17:00,VALID,914.526,VALID,0,VALID,99.5145,VALID,-0.118866,VALID,19.7847,VALID,131,VALID,0,
2000-11-17, 02:18:00,VALID,914.527,VALID,0,VALID,99.512,VALID,-0.0339617,VALID,19.777,VALID,131,VALID,0,
2000-11-17, 02:19:00,VALID,914.51,VALID,0,VALID,99.5196,VALID,0,VALID,19.7904,VALID,117,VALID,0,
2000-11-17, 02:20:00,VALID,914.503,VALID,0,VALID,99.5183,VALID,-0.0169808,VALID,19.7676,VALID,76,VALID,0,
2000-11-17, 02:21:00,VALID,914.503,VALID,0,VALID,99.4916,VALID,0,VALID,19.7323,VALID,50,VALID,0,
2000-11-17, 02:22:00,VALID,914.49,VALID,0,VALID,99.4764,VALID,0,VALID,19.6992,VALID,37,VALID,0,
2000-11-17, 02:23:00,VALID,914.477,VALID,0,VALID,99.4942,VALID,0,VALID,19.7221,VALID,37,VALID,0,
2000-11-17, 02:24:00,VALID,914.467,VALID,0,VALID,99.5031,VALID,0.0169808,VALID,19.7154,VALID,34,VALID,0,
2000-11-17, 02:25:00,VALID,914.468,VALID,0,VALID,99.5018,VALID,0,VALID,19.7159,VALID,34,VALID,0,
2000-11-17, 02:26:00,VALID,914.471,VALID,0,VALID,99.5158,VALID,0.0169808,VALID,19.7124,VALID,34,VALID,0,
2000-11-17, 02:27:00,VALID,914.475,VALID,0,VALID,99.5272,VALID,0,VALID,19.6893,VALID,34,VALID,0,
2000-11-17, 02:28:00,VALID,914.469,VALID,0,VALID,99.512,VALID,0,VALID,19.6997,VALID,37,VALID,0,
2000-11-17, 02:29:00,VALID,914.485,VALID,0,VALID,99.5221,VALID,0.0169808,VALID,19.7027,VALID,115,VALID,0,
2000-11-17, 02:30:00,VALID,914.494,VALID,0,VALID,99.5399,VALID,0.0169808,VALID,19.7025,VALID,122,VALID,0,
2000-11-17, 02:31:00,VALID,914.502,VALID,0,VALID,99.5336,VALID,0,VALID,19.7092,VALID,122,VALID,0,
2000-11-17, 02:32:00,VALID,914.502,VALID,0,VALID,99.5463,VALID,0.0169808,VALID,19.693,VALID,122,VALID,0,
2000-11-17, 02:33:00,VALID,914.503,VALID,0,VALID,99.5234,VALID,0,VALID,19.6734,VALID,122,VALID,0,
2000-11-17, 02:34:00,VALID,914.491,VALID,0,VALID,99.5183,VALID,0,VALID,19.6669,VALID,122,VALID,0,
2000-11-17, 02:35:00,VALID,914.476,VALID,0,VALID,99.5043,VALID,-0.0169808,VALID,19.6314,VALID,122,VALID,0,
2000-11-17, 02:36:00,VALID,914.46,VALID,0,VALID,99.5234,VALID,0,VALID,19.6281,VALID,122,VALID,0,
2000-11-17, 02:37:00,VALID,914.448,VALID,0,VALID,99.5374,VALID,0,VALID,19.6416,VALID,122,VALID,0,
2000-11-17, 02:38:00,VALID,914.434,VALID,0,VALID,99.5552,VALID,0,VALID,19.6448,VALID,120,VALID,0,
2000-11-17, 02:39:00,VALID,914.408,VALID,0,VALID,99.5616,VALID,-0.0169808,VALID,19.6413,VALID,110,VALID,0,
2000-11-17, 02:40:00,VALID,914.395,VALID,0,VALID,99.5628,VALID,0,VALID,19.6316,VALID,78,VALID,0,
2000-11-17, 02:41:00,VALID,914.397,VALID,0,VALID,99.573,VALID,-0.0169808,VALID,19.6383,VALID,71,VALID,0,
2000-11-17, 02:42:00,VALID,914.379,VALID,0,VALID,99.5794,VALID,0,VALID,19.648,VALID,69,VALID,0,
2000-11-17, 02:43:00,VALID,914.381,VALID,0,VALID,99.573,VALID,0,VALID,19.6448,VALID,69,VALID,0,
2000-11-17, 02:44:00,VALID,914.383,VALID,0,VALID,99.5806,VALID,-0.0169808,VALID,19.6545,VALID,69,VALID,0,
2000-11-17, 02:45:00,VALID,914.379,VALID,0,VALID,99.5921,VALID,-0.0169808,VALID,19.6644,VALID,69,VALID,0,
2000-11-17, 02:46:00,VALID,914.378,VALID,0,VALID,99.5781,VALID,-0.0339617,VALID,19.6609,VALID,69,VALID,0,
2000-11-17, 02:47:00,VALID,914.386,VALID,0,VALID,99.5857,VALID,0,VALID,19.6607,VALID,69,VALID,0,
2000-11-17, 02:48:00,VALID,914.379,VALID,0,VALID,99.5755,VALID,-0.0169808,VALID,19.6647,VALID,69,VALID,0,
2000-11-17, 02:49:00,VALID,914.372,VALID,0,VALID,99.5832,VALID,-0.0169808,VALID,19.6639,VALID,69,VALID,0,
2000-11-17, 02:50:00,VALID,914.362,VALID,0,VALID,99.5844,VALID,-0.0509425,VALID,19.658,VALID,69,VALID,0,
2000-11-17, 02:51:00,VALID,914.358,VALID,0,VALID,99.587,VALID,0,VALID,19.648,VALID,69,VALID,0,
2000-11-17, 02:52:00,VALID,914.341,VALID,0,VALID,99.5692,VALID,-0.0169808,VALID,19.6388,VALID,69,VALID,0,
2000-11-17, 02:53:00,VALID,914.34,VALID,0,VALID,99.5654,VALID,0,VALID,19.6319,VALID,69,VALID,0,
2000-11-17, 02:54:00,VALID,914.321,VALID,0,VALID,99.5654,VALID,0,VALID,19.6319,VALID,71,VALID,0,
2000-11-17, 02:55:00,VALID,914.311,VALID,0,VALID,99.5704,VALID,0,VALID,19.6351,VALID,183,VALID,0,
2000-11-17, 02:56:00,VALID,914.315,VALID,0,VALID,99.5743,VALID,0,VALID,19.6219,VALID,240,VALID,0,
2000-11-17, 02:57:00,VALID,914.317,VALID,0,VALID,99.5781,VALID,-0.0169808,VALID,19.6291,VALID,240,VALID,0,
2000-11-17, 02:58:00,VALID,914.31,VALID,0,VALID,99.5972,VALID,0,VALID,19.6321,VALID,240,VALID,0,
2000-11-17, 02:59:00,VALID,914.32,VALID,0,VALID,99.5972,VALID,0,VALID,19.6254,VALID,240,VALID,0,
2000-11-17, 03:00:00,VALID,914.32,VALID,0,VALID,99.6162,VALID,0,VALID,19.6289,VALID,240,VALID,0,
2000-11-17, 03:01:00,VALID,914.313,VALID,0,VALID,99.6061,VALID,0,VALID,19.6219,VALID,240,VALID,0,
2000-11-17, 03:02:00,VALID,914.306,VALID,0,VALID,99.5984,VALID,-0.0169808,VALID,19.6286,VALID,240,VALID,0,
2000-11-17, 03:03:00,VALID,914.308,VALID,0,VALID,99.5972,VALID,-0.0679233,VALID,19.6257,VALID,225,VALID,0,
2000-11-17, 03:04:00,VALID,914.315,VALID,0,VALID,99.5844,VALID,0,VALID,19.6063,VALID,219,VALID,0,
2000-11-17, 03:05:00,VALID,914.321,VALID,0,VALID,99.5946,VALID,-0.0169808,VALID,19.5931,VALID,219,VALID,0,
2000-11-17, 03:06:00,VALID,914.316,VALID,0,VALID,99.6111,VALID,-0.0169808,VALID,19.5966,VALID,219,VALID,0,
2000-11-17, 03:07:00,VALID,914.324,VALID,0,VALID,99.6251,VALID,0,VALID,19.5996,VALID,219,VALID,0,
2000-11-17, 03:08:00,VALID,914.312,VALID,0,VALID,99.634,VALID,-0.0169808,VALID,19.6127,VALID,214,VALID,0,
2000-11-17, 03:09:00,VALID,914.308,VALID,0,VALID,99.6404,VALID,-0.0169808,VALID,19.6257,VALID,184,VALID,0,
2000-11-17, 03:10:00,VALID,914.302,VALID,0,VALID,99.6404,VALID,-0.0169808,VALID,19.6254,VALID,173,VALID,0,
2000-11-17, 03:11:00,VALID,914.297,VALID,0,VALID,99.6417,VALID,0,VALID,19.6155,VALID,173,VALID,0,
2000-11-17, 03:12:00,VALID,914.305,VALID,0,VALID,99.6442,VALID,-0.0169808,VALID,19.6326,VALID,173,VALID,0,
2000-11-17, 03:13:00,VALID,914.297,VALID,0,VALID,99.6518,VALID,0.0169808,VALID,19.6324,VALID,173,VALID,0,
2000-11-17, 03:14:00,VALID,914.289,VALID,0,VALID,99.6391,VALID,-0.0169808,VALID,19.6353,VALID,173,VALID,0,
2000-11-17, 03:15:00,VALID,914.287,VALID,0,VALID,99.6378,VALID,-0.0169808,VALID,19.6353,VALID,173,VALID,0,
2000-11-17, 03:16:00,VALID,914.284,VALID,0,VALID,99.6391,VALID,0,VALID,19.6421,VALID,173,VALID,0,
2000-11-17, 03:17:00,VALID,914.281,VALID,0,VALID,99.6544,VALID,0,VALID,19.6515,VALID,173,VALID,0,
2000-11-17, 03:18:00,VALID,914.282,VALID,0,VALID,99.6417,VALID,-0.0169808,VALID,19.6513,VALID,173,VALID,0,
2000-11-17, 03:19:00,VALID,914.296,VALID,0,VALID,99.6226,VALID,0,VALID,19.6351,VALID,174,VALID,0,
2000-11-17, 03:20:00,VALID,914.287,VALID,0,VALID,99.6315,VALID,0,VALID,19.6286,VALID,181,VALID,0,
2000-11-17, 03:21:00,VALID,914.297,VALID,0,VALID,99.6124,VALID,0,VALID,19.6222,VALID,182,VALID,0,
2000-11-17, 03:22:00,VALID,914.292,VALID,0,VALID,99.6264,VALID,0,VALID,19.6222,VALID,182,VALID,0,
2000-11-17, 03:23:00,VALID,914.298,VALID,0,VALID,99.634,VALID,-0.0169808,VALID,19.6353,VALID,187,VALID,0,
2000-11-17, 03:24:00,VALID,914.308,VALID,0,VALID,99.6493,VALID,0,VALID,19.6513,VALID,205,VALID,0,
2000-11-17, 03:25:00,VALID,914.318,VALID,0,VALID,99.648,VALID,-0.0169808,VALID,19.658,VALID,208,VALID,0,
2000-11-17, 03:26:00,VALID,914.313,VALID,0,VALID,99.6536,VALID,-0.020377,VALID,19.6614,VALID,185,VALID,0,
2000-11-17, 03:27:00,VALID,914.314,VALID,0,VALID,99.6531,VALID,0,VALID,19.6746,VALID,174,VALID,0,
2000-11-17, 03:28:00,VALID,914.303,VALID,0,VALID,99.6518,VALID,0,VALID,19.6704,VALID,176,VALID,0,
2000-11-17, 03:29:00,VALID,914.296,VALID,0,VALID,99.6531,VALID,0,VALID,19.6739,VALID,177,VALID,0,
2000-11-17, 03:30:00,VALID,914.311,VALID,0,VALID,99.6696,VALID,-0.0169808,VALID,19.6806,VALID,174,VALID,0,
2000-11-17, 03:31:00,VALID,914.316,VALID,0,VALID,99.6569,VALID,0,VALID,19.6935,VALID,169,VALID,0,
2000-11-17, 03:32:00,VALID,914.326,VALID,0,VALID,99.6607,VALID,0,VALID,19.697,VALID,165,VALID,0,
2000-11-17, 03:33:00,VALID,914.331,VALID,0,VALID,99.6607,VALID,0,VALID,19.6803,VALID,170,VALID,0,
2000-11-17, 03:34:00,VALID,914.345,VALID,0,VALID,99.6696,VALID,-0.0169808,VALID,19.6803,VALID,191,VALID,0,
2000-11-17, 03:35:00,VALID,914.356,VALID,0,VALID,99.6735,VALID,0,VALID,19.69,VALID,185,VALID,0,
2000-11-17, 03:36:00,VALID,914.342,VALID,0,VALID,99.6849,VALID,-0.0339617,VALID,19.6903,VALID,218,VALID,0,
2000-11-17, 03:37:00,VALID,914.352,VALID,0,VALID,99.6811,VALID,-0.0169808,VALID,19.7032,VALID,219,VALID,0,
2000-11-17, 03:38:00,VALID,914.34,VALID,0,VALID,99.6874,VALID,-0.0509425,VALID,19.7062,VALID,221,VALID,0,
2000-11-17, 03:39:00,VALID,914.332,VALID,0,VALID,99.6913,VALID,-0.0339617,VALID,19.7129,VALID,220,VALID,0,
2000-11-17, 03:40:00,VALID,914.323,VALID,0,VALID,99.6925,VALID,0,VALID,19.7126,VALID,218,VALID,0,
2000-11-17, 03:41:00,VALID,914.314,VALID,0,VALID,99.7052,VALID,-0.0169808,VALID,19.7194,VALID,199,VALID,0,
2000-11-17, 03:42:00,VALID,914.318,VALID,0,VALID,99.6951,VALID,0,VALID,19.7261,VALID,199,VALID,0,
2000-11-17, 03:43:00,VALID,914.297,VALID,0,VALID,99.704,VALID,-0.0169808,VALID,19.7226,VALID,199,VALID,0,